Location: Unspecified
(35.7250°N, 0.0000°E)
Time: 17:46:04
(UTC+00:00)

Vanguard 1 Rocket - Pass Details

Date: 25 June 2019
Orbit: 652 x 4224 km, 34.3° (Epoch: 24 August)

Event Time Altitude Azimuth Distance (km) Brightness Sun altitude
Rises 11:16:21 0° 180° (S) 8,275 12.4 74.1°
Reaches altitude 10° 11:27:45 10° 159° (SSE) 7,419 12.4 75.5°
Maximum altitude 11:37:52 14° 135° (SE) 6,896 12.3 76.5°
Drops below altitude 10° 11:47:04 10° 111° (ESE) 6,781 12.1 77.2°
Sets 11:55:53 0° 90° (E) 7,127 12.0 77.6°
